• MPC Preparation (Info)

  • MPEC 2010-T71 : 2007 TB23

    The following Minor Planet Electronic Circular may be linked-to from your own Web pages, but must not otherwise be redistributed electronically.

    A form allowing access to any MPEC is at the bottom of this page.


    Read MPEC 2010-T70 Read MPEC 2010-T72


    M.P.E.C. 2010-T71                                Issued 2010 Oct. 10, 22:42 UT
    
         The Minor Planet Electronic Circulars contain information on unusual
             minor planets and routine data on comets.  They are published
       on behalf of Commission 20 of the International Astronomical Union by the
              Minor Planet Center, Smithsonian Astrophysical Observatory,
                              Cambridge, MA 02138, U.S.A.
    
                 Prepared using the Tamkin Foundation Computer Network
    
                                  MPC@CFA.HARVARD.EDU
           URL https://www.minorplanetcenter.org/iau/mpc.html  ISSN 1523-6714
    
                                       2007 TB23
    
                               Revision to MPEC 2007-T74
    
    Additional Observations:
         K07T23B KC2010 10 08.38473906 26 05.58 +38 54 44.6          22.0 V ET071H21
         K07T23B KC2010 10 08.39909006 26 07.21 +38 55 16.0          22.1 V ET071H21
         K07T23B KC2010 10 08.41457406 26 09.01 +38 55 49.9          21.8 V ET071H21
         K07T23B IC2010 10 10.40630806 30 12.10 +40 09 27.4          22.3 V ET071H21
         K07T23B KC2010 10 10.41835306 30 13.57 +40 09 54.9          22.4 V ET071H21
         K07T23B KC2010 10 10.42421206 30 14.27 +40 10 08.3          22.3 V ET071H21
    
    Observer details:
    H21 Astronomical Research Observatory, Westfield.  Observer R. Holmes.
        Measurer S. Foglia.  0.81-m f/4.0 astrograph + CCD.
    
    First and last observations above in comparison with prediction:
    Residuals in seconds of arc, reference and Delta-T
    101008 H21 79.9+ 40.0+    101010 H21 81.9+ 38.3+    MPO133539   -0.029 day
    
    Orbital elements:
    2007 TB23                                           PHA, Earth MOID = 0.0065 AU
    Epoch 2010 July 23.0 TT = JDT 2455400.5                 MPC
    M 158.48476              (2000.0)            P               Q
    n   0.69513683     Peri.  173.77459     -0.81490088     +0.42001114
    a   1.2620867      Node    40.13309     -0.55491597     -0.36640876
    e   0.1977133      Incl.   38.29100     -0.16734639     -0.83026216
    P   1.42           H   18.7           G   0.15           U   3
    Residuals in seconds of arc
    071010 703  0.3+  0.1-    071023 448  0.3+  0.3-    071106 704  0.2-  0.5-
    071010 703  0.0   0.5-    071023 D21  0.2+  0.7-    071106 704  0.2+  0.0
    071010 703  0.7+  0.2+    071023 D21  0.3+  0.4+    071106 704  0.7+  0.3+
    071010 703  1.5+  0.3-    071024 G96  0.2+  0.5-    071107 H45  0.4+  0.5+
    071010 703 (1.9+  0.3+)   071024 G96  0.2+  0.2-    071107 H45  0.3-  0.1+
    071010 703  0.6+  0.5+    071024 G96  0.3+  0.2-    071107 H45  0.0   0.1+
    071010 703  1.0+  0.6+    071024 G96  0.4+  0.3-    071107 H45  0.1+  0.2+
    071010 703  0.3-  0.4-    071031 151  0.1+  0.3+    071107 H45  0.2+  0.0
    071011 926  0.2+  0.3-    071031 151  0.9-  0.4+    071107 H45  0.2+  0.1+
    071011 926  0.2+  0.6+    071031 151 (2.0-  0.8+)   071110 H45  0.2-  0.2-
    071011 926  0.2-  0.4+    071031 A24  1.0+  0.8-    071110 H45  0.4+  0.4-
    071011 G96  0.6+  0.6-    071031 A24  0.6-  0.9+    071110 H45  0.2-  0.1-
    071011 G96  0.3+  0.5-    071031 A24  0.1+  0.5+    071110 H45  0.5+  0.3-
    071011 G96  0.6+  0.6-    071031 A24  0.6+  0.3-    071110 H45  0.0   0.4-
    071011 G96  0.8+  0.7-    071101 A24  0.7-  0.1-    071110 H45  0.5+  0.5-
    071012 701  1.0+  0.7-    071101 A24  0.4-  0.1-    071111 A24  1.1+  0.3+
    071012 701  0.3-  0.3+    071101 A24  0.6-  0.2+    071111 130  0.6+  0.8+
    071012 701  0.1-  0.4-    071101 G96  0.1+  0.2-    071111 130  0.4+  0.8+
    071014 G96  0.4+  0.7-    071101 G96  0.3+  0.2-    071111 130  0.6+  0.7+
    071014 G96  0.8+  0.6-    071101 G96  0.1+  0.3-    071111 130  1.2+  0.6-
    071014 G96  0.8+  0.8-    071101 G96  0.4+  0.2-    071111 A24  1.2-  0.7+
    071014 G96  0.5+  0.7-    071101 151  0.2-  0.5+    071111 A24  1.0-  0.6+
    071015 246  0.4+  0.2-    071101 151  0.1-  0.4+    071111 A24  0.3-  0.4+
    071015 246  0.4+  0.1-    071101 151  0.2+  0.3+    071114 H45  1.0+  0.5-
    071015 246  0.3+  0.1-    071101 151  0.4-  0.7+    071114 H45  0.9+  0.1-
    071015 246  0.4-  0.2-    071101 151  0.2-  1.2+    071114 H45  0.2+  0.1+
    071015 246  0.6+  0.9+    071101 151  0.5-  0.9+    071114 H45  0.1+  0.1-
    071015 246  1.1+  1.0+    071101 151  1.2-  0.5+    071114 H45  0.1+  0.1+
    071015 246  0.7+  0.1+    071103 703  1.1+  0.5-    071114 H45  0.5+  0.2+
    071015 G96  0.2+  0.4-    071103 703  0.1+  0.0     071115 A24  0.3+  0.9+
    071015 G96  0.1+  0.5-    071103 703  0.1+  0.1-    071115 A24 (1.7+  0.2-)
    071015 G96  0.6+  0.3-    071103 703  0.0   0.8+    071116 A24  0.3-  0.7+
    071015 G96  0.5+  0.4-    071103 703  0.2+  0.6+    071116 A24  1.5+  0.2+
    071015 291  0.9-  0.6+    071103 703  0.0   0.7+    071117 704  1.4+  0.1-
    071015 291  0.4-  0.1-    071103 703  0.3+  0.6+    071117 704  0.4+  0.3-
    071015 291  1.3-  0.5+    071103 703  0.1+  0.3+    071117 704  0.0   0.5+
    071016 246  1.0+  0.3-    071104 G96  0.1-  0.0     071117 704  0.3-  0.3-
    071016 246  0.4+  0.2-    071104 H45  0.8+  0.4-    071117 H53 (1.7+  0.4+)
    071016 246  0.4+  0.2+    071104 H45  0.6+  0.3-    071117 H53 (3.5-  0.5-)
    071016 246  1.0+  0.1-    071104 G96  0.1-  0.1-    071117 H53  0.3+  0.4+
    071016 246  0.4+  0.3-    071104 H45  0.4-  1.1+    071117 704  0.6+  0.2+
    071016 291  0.6-  0.1-    071104 H45  0.6+  0.0     071117 H53  1.1+  1.2+
    071016 291  0.4-  0.0     071104 H45  0.4+  0.0     071117 H53 (3.3+  0.4-)
    071016 291  0.6-  0.4-    071104 H45  0.1-  0.0     071117 H53  0.0   0.3-
    071016 703  0.3-  0.2-    071104 G96  0.3+  0.1-    071118 H45  0.3+  0.1-
    071016 703  0.1-  0.3-    071104 G96  0.5+  0.2-    071118 H45  0.3+  0.2+
    071016 703  1.0-  0.5-    071104 G96  0.4+  0.2-    071118 H45  0.8+  0.1-
    071016 703  0.2+  0.3-    071104 G96  0.4+  0.2+    071118 H45  0.9-  0.0
    071018 291  0.2-  0.1+    071104 G96  0.1+  0.3-    071118 H45  0.4+  0.3+
    071018 291  0.3-  0.1+    071104 291  0.3-  0.0     071118 H45  0.2+  0.1+
    071018 291  0.3-  0.1+    071104 G96  0.2+  0.1-    071118 A24  0.1-  1.1-
    071019 291  0.4-  0.1+    071104 291  0.5-  0.0     071130 H55  0.1-  0.0
    071019 291  0.3-  0.2+    071104 G96  0.1+  0.2-    071130 H55  0.2+  0.5+
    071019 291  0.3-  0.1+    071104 G96  0.3+  0.0     071130 H55  0.4-  0.1+
    071019 704  0.7+  0.3-    071104 291  0.2-  0.1-    071226 H55  0.1-  0.1+
    071019 704  1.4+  0.1-    071104 G96  0.0   0.2-    071226 H55  0.2-  0.1+
    071019 704 (2.7+  1.7-)   071104 G96  0.1+  0.0     071226 H55  0.1-  0.2+
    071019 704  0.0   0.2-    071104 A78  0.2-  1.2-    080125 H55  0.1+  0.3+
    071019 704  0.6-  1.0+    071104 A78  0.4-  0.5-    080125 H55  1.0-  0.4-
    071020 G96  0.5+  0.5-    071104 A78  0.6-  1.0-    080125 H55  0.9-  0.1+
    071020 G96  0.5+  0.5-    071104 A78  0.3-  1.0-    101008 H21  0.7+  0.6+
    071020 G96  0.6+  0.4-    071105 H45  0.1-  0.1-    101008 H21  0.0   0.5+
    071020 G96  0.7+  0.4-    071105 H45  0.4-  0.4-    101008 H21  0.3-  0.5+
    071023 291  0.5-  0.1+    071105 H45  0.3+  0.4-    101010 H21  0.7-  0.0
    071023 291  0.4-  0.1-    071105 H45  0.1+  0.6-    101010 H21  0.3-  0.2+
    071023 291  0.5-  0.0     071105 H45  0.3-  0.2-    101010 H21  0.3-  0.4+
    071023 448  0.2+  0.2-    071105 H45  0.4-  0.3-
    071023 448  0.6+  0.2-    071106 704  0.0   0.2+
    
